Belen, NM

11:00 PM MDT on August 24, 2016 (GMT -0600)
Belen

Weather History for KE80 - March, 2013

Change the Weather History Date:

Wednesday, March 27, 2013

  Actual Average (KABQ) Record (KABQ)
Temperature  
Mean Temperature 54 °F 50 °F  
Max Temperature 73 °F 63 °F 84 °F (1971)
Min Temperature 36 °F 38 °F 10 °F (1913)
Degree Days  
Heating Degree Days 10 15  
Month to date heating degree days 469  
Since 1 July heating degree days 3772  
Cooling Degree Days 0 0  
Month to date cooling degree days 0  
Year to date cooling degree days 0  
Growing Degree Days 4 (Base 50)    
Moisture  
Dew Point 12 °F    
Average Humidity 18    
Maximum Humidity 30    
Minimum Humidity 10    
Precipitation  
Precipitation 0.00 in 0.01 in 0.45 in (1921)
Month to date precipitation 0.49  
Year to date precipitation 1.35  
Snow  
Snow 0.00 in - - ()
Month to date snowfall  
Since 1 July snowfall  
Snow Depth -    
Sea Level Pressure  
Sea Level Pressure 30.05 in    
Wind  
Wind Speed 7 mph (SW)    
Max Wind Speed 18 mph    
Max Gust Speed 26 mph    
Visibility 10 miles    
Events      
T = Trace of Precipitation, MM = Missing Value Source: NWS Daily Summary

Daily Weather History Graph

Daily Weather History Graph

Search for Another Location

Airport or City:

Trip Planner

Search our weather history database for the weather conditions in past years. The results will help you decide how hot, cold, wet, or windy it might be!

Date:

Astronomy

Mar. 27, 2013 Rise Set
Actual Time 7:00 AM MDT 7:24 PM MDT
Civil Twilight 6:35 AM MDT 7:50 PM MDT
Nautical Twilight 6:06 AM MDT 8:19 PM MDT
Astronomical Twilight 5:35 AM MDT 8:49 PM MDT
Moon 8:08 PM MDT (3/27) 6:55 AM MDT (3/27)
Length of Visible Light 13h 14m
Length of Day
12h 23m
Full, 100% of the Moon is Illuminated
Mar 27
Full
Apr 2
Last Quarter
Apr 10
New
Apr 18
First Quarter
Apr 25
Full

Hourly Weather History & Observations

Time (MDT) Temp. Windchill Dew Point Humidity Pressure Visibility Wind Dir Wind Speed Gust Speed Precip Events Conditions
12:15 AM 47.5 °F - 12.2 °F 24% 30.04 in 10.0 mi South 8.1 mph - N/A   Clear
12:55 AM 48.0 °F - 12.7 °F 24% 30.04 in 10.0 mi South 11.5 mph - N/A   Clear
1:15 AM 48.2 °F - 12.6 °F 24% 30.04 in 10.0 mi SSW 11.5 mph - N/A   Clear
1:35 AM 47.5 °F - 12.2 °F 24% 30.04 in 10.0 mi SSW 11.5 mph - N/A   Clear
1:55 AM 45.1 °F 40.8 °F 11.8 °F 26% 30.04 in 10.0 mi SSW 8.1 mph - N/A   Clear
2:15 AM 41.2 °F 38.2 °F 10.9 °F 29% 30.05 in 10.0 mi SSW 4.6 mph - N/A   Clear
2:35 AM 44.8 °F 43.3 °F 11.8 °F 26% 30.05 in 10.0 mi SW 3.5 mph - N/A   Clear
2:55 AM 42.8 °F - 11.5 °F 28% 30.04 in 10.0 mi Calm Calm - N/A   Clear
3:15 AM 43.3 °F - 11.3 °F 27% 30.04 in 10.0 mi Calm Calm - N/A   Clear
3:55 AM 41.2 °F - 10.4 °F 28% 30.04 in 10.0 mi Calm Calm - N/A   Clear
4:15 AM 40.1 °F - 9.9 °F 29% 30.05 in 10.0 mi Calm Calm - N/A   Clear
4:35 AM 40.8 °F - 10.8 °F 29% 30.05 in 10.0 mi Calm Calm - N/A   Clear
4:55 AM 43.3 °F - 10.4 °F 26% 30.05 in 10.0 mi Calm Calm - N/A   Clear
5:15 AM 42.3 °F - 9.7 °F 26% 30.06 in 10.0 mi Calm Calm - N/A   Clear
5:35 AM 40.1 °F - 7.9 °F 27% 30.06 in 10.0 mi Calm Calm - N/A   Clear
5:55 AM 36.5 °F - 6.6 °F 29% 30.06 in 10.0 mi Calm Calm - N/A   Clear
6:15 AM 37.6 °F 35.1 °F 7.2 °F 28% 30.07 in 10.0 mi SE 3.5 mph - N/A   Clear
6:35 AM 37.0 °F 33.3 °F 8.1 °F 30% 30.07 in 10.0 mi South 4.6 mph - N/A   Clear
6:55 AM 36.3 °F 32.5 °F 7.2 °F 30% 30.08 in 10.0 mi WNW 4.6 mph - N/A   Clear
7:15 AM 36.5 °F 31.8 °F 6.8 °F 29% 30.08 in 10.0 mi West 5.8 mph - N/A   Clear
7:35 AM 37.4 °F - 6.8 °F 28% 30.09 in 10.0 mi Calm Calm - N/A   Clear
7:55 AM 40.1 °F - 7.5 °F 26% 30.10 in 10.0 mi Calm Calm - N/A   Clear
8:15 AM 42.4 °F - 8.6 °F 25% 30.11 in 10.0 mi Calm Calm - N/A   Clear
8:35 AM 46.9 °F - 9.7 °F 22% 30.11 in 10.0 mi Calm Calm - N/A   Clear
8:55 AM 51.3 °F - 9.9 °F 19% 30.12 in 10.0 mi SW 4.6 mph - N/A   Clear
9:15 AM 52.3 °F - 9.9 °F 18% 30.12 in 10.0 mi SW 3.5 mph - N/A   Clear
9:35 AM 54.7 °F - 11.3 °F 18% 30.12 in 10.0 mi South 5.8 mph - N/A   Clear
10:15 AM 56.7 °F - 12.6 °F 18% 30.12 in 10.0 mi South 9.2 mph - N/A   Clear
10:35 AM 58.8 °F - 13.1 °F 17% 30.12 in 10.0 mi South 9.2 mph - N/A   Clear
11:15 AM 61.0 °F - 13.6 °F 16% 30.11 in 10.0 mi South 8.1 mph - N/A   Clear
11:35 AM 61.7 °F - 13.3 °F 15% 30.11 in 10.0 mi SSW 9.2 mph - N/A   Clear
11:55 AM 64.4 °F - 14.2 °F 14% 30.10 in 10.0 mi South 8.1 mph - N/A   Clear
12:15 PM 66.2 °F - 14.2 °F 13% 30.09 in 10.0 mi SW 8.1 mph - N/A   Clear
12:35 PM 67.5 °F - 14.9 °F 13% 30.08 in 10.0 mi South 4.6 mph - N/A   Clear
12:55 PM 68.9 °F - 14.9 °F 13% 30.07 in 10.0 mi South 4.6 mph - N/A   Clear
1:15 PM 69.1 °F - 15.1 °F 13% 30.07 in 10.0 mi Calm Calm - N/A   Clear
1:35 PM 70.3 °F - 14.9 °F 12% 30.05 in 10.0 mi SW 8.1 mph 18.4 mph N/A   Clear
1:55 PM 71.2 °F - 14.9 °F 12% 30.04 in 10.0 mi WSW 12.7 mph 21.9 mph N/A   Clear
2:15 PM 71.2 °F - 14.9 °F 12% 30.04 in 10.0 mi South 5.8 mph - N/A   Clear
2:35 PM 72.5 °F - 15.1 °F 11% 30.02 in 10.0 mi South 15.0 mph 19.6 mph N/A   Clear
2:55 PM 73.9 °F - 14.7 °F 11% 30.02 in 10.0 mi SSW 17.3 mph 21.9 mph N/A   Clear
3:15 PM 73.0 °F - 15.1 °F 11% 30.01 in 10.0 mi SSW 10.4 mph 18.4 mph N/A   Clear
3:35 PM 73.9 °F - 14.7 °F 11% 30.00 in 10.0 mi SW 8.1 mph 17.3 mph N/A   Clear
4:15 PM 73.8 °F - 13.6 °F 10% 29.98 in 10.0 mi SW 11.5 mph 18.4 mph N/A   Clear
4:35 PM 73.4 °F - 13.6 °F 10% 29.98 in 10.0 mi SSW 11.5 mph - N/A   Clear
4:55 PM 73.0 °F - 13.3 °F 10% 29.98 in 10.0 mi WSW 18.4 mph 26.5 mph N/A   Clear
5:15 PM 72.7 °F - 13.1 °F 10% 29.98 in 10.0 mi WNW 11.5 mph 20.7 mph N/A   Clear
5:35 PM 72.7 °F - 12.9 °F 10% 29.97 in 10.0 mi WNW 13.8 mph 18.4 mph N/A   Clear
5:55 PM 71.8 °F - 12.7 °F 10% 29.98 in 10.0 mi NNW 9.2 mph - N/A   Clear
6:15 PM 71.6 °F - 12.6 °F 10% 29.98 in 10.0 mi West 9.2 mph 16.1 mph N/A   Clear
6:35 PM 71.1 °F - 12.2 °F 10% 29.98 in 10.0 mi Calm Calm - N/A   Scattered Clouds
6:55 PM 70.2 °F - 12.0 °F 11% 30.00 in 10.0 mi Calm Calm - N/A   Scattered Clouds
7:15 PM 69.8 °F - 11.1 °F 10% 30.00 in 10.0 mi WNW 13.8 mph - N/A   Clear
7:35 PM 68.0 °F - 9.5 °F 10% 30.01 in 10.0 mi WNW 10.4 mph - N/A   Clear
7:55 PM 66.9 °F - 9.1 °F 10% 30.02 in 10.0 mi NW 10.4 mph - N/A   Clear
8:15 PM 67.8 °F - 12.2 °F 12% 30.02 in 10.0 mi WNW 17.3 mph 21.9 mph N/A   Clear
8:35 PM 67.8 °F - 12.4 °F 12% 30.04 in 10.0 mi WNW 11.5 mph - N/A   Clear
8:55 PM 66.2 °F - 12.2 °F 12% 30.05 in 10.0 mi West 11.5 mph - N/A   Clear
9:15 PM 64.9 °F - 11.5 °F 12% 30.05 in 10.0 mi West 11.5 mph - N/A   Scattered Clouds
9:35 PM 63.5 °F - 10.0 °F 12% 30.06 in 10.0 mi West 8.1 mph - N/A   Clear
9:55 PM 63.3 °F - 11.5 °F 13% 30.07 in 10.0 mi West 9.2 mph - N/A   Scattered Clouds
10:15 PM 62.6 °F - 13.1 °F 15% 30.08 in 10.0 mi West 9.2 mph - N/A   Scattered Clouds
10:35 PM 62.8 °F - 13.6 °F 15% 30.08 in 10.0 mi West 10.4 mph - N/A   Scattered Clouds
11:15 PM 57.4 °F - 11.7 °F 16% 30.09 in 10.0 mi West 9.2 mph - N/A   Clear
11:35 PM 55.4 °F - 10.6 °F 17% 30.09 in 10.0 mi West 6.9 mph - N/A   Clear
11:55 PM 52.2 °F - 9.3 °F 18% 30.09 in 10.0 mi WNW 6.9 mph - N/A   Clear